Regional Weather Roundup
Issued by NWS

Home | Current Version | Previous Version | Graphics & Text | Print | Product List | Glossary On
Versions: 1 2 3 4 5 6 7 8 9 10 11 12 13 14 15 16 17 18 19 20 21 22 23 24 25 26 27 28 29 30 31 32 33 34 35 36 37 38 39 40 41 42 43 44 45 46 47 48 49 50
095
ASUS43 KDTX 231901
RWRMI
MICHIGAN HOURLY REGIONAL WEATHER ROUNDUP
NATIONAL WEATHER SERVICE DETROIT/PONTIAC MI
300 PM EDT WED AUG 23 2017

NOTE: "FAIR" INDICATES FEW OR NO CLOUDS BELOW 12,000 FEET WITH NO
SIGNIFICANT WEATHER AND/OR OBSTRUCTION TO VISIBILITY.

MIZ047>049-052>055-059>063-066>070-074>076-081>083-232000-
SOUTHEAST LOWER MICHIGAN

CITY           SKY/WX    TMP DP  RH WIND       PRES   REMARKS
ADRIAN         MOSUNNY   75  52  44 NW12G20   29.98F
ALMA           MOSUNNY   71  50  46 NW13G18   29.97R
ANN ARBOR      PTSUNNY   76  49  38 MISG      29.96S
BAD AXE        CLOUDY    69  52  55 NW9       29.95R
CARO           PTSUNNY   68  51  52 NW7       29.95R
DETROIT CITY   MOSUNNY   74  49  41 W12       29.95S
DETROIT        PTSUNNY   76  51  41 NW8       29.95F
FLINT          MOSUNNY   73  52  47 W13       29.96S
GROSSE ILE     PTSUNNY   74  50  43 NW10G17   29.94F
HILLSDALE      MOSUNNY   73  48  40 W13G23    29.98F
HOWELL         PTSUNNY   70  51  51 NW9       29.97S

CITY           SKY/WX    TMP DP  RH WIND       PRES   REMARKS
JACKSON        MOSUNNY   72  50  45 VRB6      29.98S
LAMBERTVILLE   CLOUDY    74  53  47 W8        29.96F
LANSING        PTSUNNY   70  50  49 W12       29.98S
LAPEER         CLOUDY    69  50  49 N7        29.96S
MASON          PTSUNNY   74  50  42 NW13      29.98S
MONROE         PTSUNNY   77  53  44 W12G18    29.95S
MT. CLEMENS    MOSUNNY   74  53  49 NW10      29.93F
PONTIAC        PTSUNNY   72  52  49 NW12      29.95S
PORT HOPE        N/A     68  54  60 VRB5      29.92S
PORT HURON     CLOUDY    70  52  52 NW8       29.95R
TRI CITIES     PTSUNNY   71  53  52 NW12      29.95F
MIDLAND        FAIR      74  52  46 W12G18    29.94S
TROY           SUNNY     74  48  39 W13G22    29.97S
SAGINAW HB     MOSUNNY   70  50  49 W13       29.94S
$$
MIZ043>046-050>051-056>058-064>065-071>073-077>080-232000-
SOUTHWEST LOWER MICHIGAN

CITY           SKY/WX    TMP DP  RH WIND       PRES   REMARKS
BATTLE CREEK   PTSUNNY   73  52  47 NW15      30.00S
BENTON HARBOR  MOSUNNY   72  53  51 NW12G22   30.04R
BIG RAPIDS     MOSUNNY   68  48  47 NW15G23   29.98S
COLDWATER      MOSUNNY   74  49  40 W9G17     29.99F
FREMONT        FAIR      69  51  53 NW12G20   30.00S
HOLLAND        MOSUNNY   70  54  56 NW10G20   30.03R
GRAND RAPIDS   PTSUNNY   72  50  45 W10G21    29.98S
IONIA          PTSUNNY   73  49  41 NW12      29.97S
KALAMAZOO      MOSUNNY   75  48  38 W16G24    30.00F
LUDINGTON      PTSUNNY   67  49  52 N10G16    30.02R
MARSHALL       CLOUDY    74  51  45 NW10G20   29.98S
MOUNT PLEASANT MOSUNNY   72  50  45 W8G20     29.96S
MUSKEGON       PTSUNNY   71  51  49 W15       30.01S
SOUTH HAVEN    MOSUNNY   71  53  53 NW13G20   30.03S
$$
MIZ016>042-232000-
NORTHERN LOWER MICHIGAN

CITY           SKY/WX    TMP DP  RH WIND       PRES   REMARKS
BEAVER ISLAND  PTSUNNY   65  48  55 NW12      29.99S
BELLAIRE       MOSUNNY   64  47  55 NW5       29.99R
CADILLAC       PTSUNNY   67  45  44 NW13G23   29.99R
CHARLEVOIX     CLOUDY    63  50  61 NW13G20   30.02R
FRANKFORT      MOSUNNY   67  50  54 N7        30.01S
GAYLORD        CLOUDY    61  46  57 NW8G17    29.98R
GRAYLING       MOSUNNY   67  43  42 W15G24    29.98S
HARBOR SPRINGS CLOUDY    63  47  56 W12G17    29.98R
HOUGHTON LAKE  MOSUNNY   66  48  52 NW17G24   29.98R
MANISTEE       CLOUDY    66  51  58 NW10G18   30.01R
OSCODA         PTSUNNY   70  46  42 NW12G23   29.92R
PELLSTON       PTSUNNY   63  51  65 NW16G23   29.97R
ROGERS CITY    PTSUNNY   63  51  65 N12G21    29.95S
TRAVERSE CITY  PTSUNNY   67  47  48 N10       29.99R
$$
MIZ007>008-015-232000-
EASTERN UPPER MICHIGAN

CITY           SKY/WX    TMP DP  RH WIND       PRES   REMARKS
MACKINAC ISLAN CLOUDY    60  50  68 NW10G22   29.96R
NEWBERRY       CLOUDY    57  50  77 NW12G17   29.98R
S. S. MARIE    CLOUDY    58  51  78 NW13G22   29.94R
MUNISING         N/A     60  52  74 N15       30.01R
$$
MIZ004>006-011>014-085-232000-
CENTRAL UPPER MICHIGAN

CITY           SKY/WX    TMP DP  RH WIND       PRES   REMARKS
MANISTIQUE     CLOUDY    63  42  46 NW16G30   29.99S
ESCANABA       MOSUNNY   67  44  43 NW9G18    29.99R
MENOMINEE      PTSUNNY   69  49  48 NW8       30.00S
SAWYER-GWINN   MOSUNNY   61  45  55 NW16G22   30.02R
$$
MIZ001>003-009>011-084-232000-
WESTERN UPPER MICHIGAN

CITY           SKY/WX    TMP DP  RH WIND       PRES   REMARKS
IRON MOUNTAIN  MOSUNNY   68  43  40 NW15G23   30.01R
HOUGHTON       SUNNY     59  39  47 W18G24    30.04R
COPPER HARBOR    N/A     58  46  64 N15       30.03R
IRONWOOD       MOSUNNY   60  45  57 NW15      30.09S
$$

ABBREVIATIONS USED IN REMARKS
   TC - TEMPERATURE IN CELSIUS
  WCI - WIND CHILL INDEX
   HX - HEAT INDEX
  VSB - VISIBILITY





USA.gov is the U.S. government's official web portal to all federal, state and local government web resources and services.